This is the latest recevied weather packets stored in our database for station/object W9WRP. If no packets are shown the sender has not sent any weather packets the latest 1 day(s).
| Time | Temp. | Humidity | Pressure | Rain* | Wind** | Luminosity | Snow |
|---|---|---|---|---|---|---|---|
| 1778107017 | 28.89° C | 17% | 1015 hPa | 0 mm | - | 480 W/m² | - |
| 1778106713 | 28.89° C | 17% | 1015.4 hPa | 0 mm | - | 492 W/m² | - |
| 1778106410 | 27.78° C | 18% | 1015.4 hPa | 0 mm | - | 506 W/m² | - |
| 1778105804 | 28.89° C | 17% | 1015.5 hPa | 0 mm | - | 530 W/m² | - |
| 1778105502 | 28.89° C | 17% | 1015.6 hPa | 0 mm | - | 543 W/m² | - |
| 1778104893 | 28.89° C | 17% | 1015.8 hPa | 0 mm | - | 567 W/m² | - |
| 1778102772 | 28.89° C | 18% | 1016 hPa | 0 mm | - | 644 W/m² | - |
| 1778102467 | 28.33° C | 18% | 1016.3 hPa | 0 mm | - | 654 W/m² | - |
| 1778102163 | 28.89° C | 18% | 1016.4 hPa | 0 mm | - | 663 W/m² | - |
| 1778099739 | 28.33° C | 18% | 1016.9 hPa | 0 mm | - | 731 W/m² | - |
| 1778099435 | 27.78° C | 18% | 1016.9 hPa | 0 mm | - | 738 W/m² | - |
| 1778097919 | 27.22° C | 20% | 1017.2 hPa | 0 mm | - | 765 W/m² | - |
| 1778097616 | 27.78° C | 19% | 1017.4 hPa | 0 mm | - | 768 W/m² | - |
| 1778097313 | 27.78° C | 19% | 1017.4 hPa | 0 mm | - | 773 W/m² | - |
| 1778096707 | 27.78° C | 19% | 1017.5 hPa | 0 mm | - | 779 W/m² | - |
| 1778095190 | 27.22° C | 19% | 1017.6 hPa | 0 mm | - | 786 W/m² | - |
| 1778094887 | 26.67° C | 20% | 1017.7 hPa | 0 mm | - | 787 W/m² | - |
| 1778091553 | 25.56° C | 21% | 1018.2 hPa | 0 mm | - | 760 W/m² | - |
| 1778090643 | 25.56° C | 22% | 1018.4 hPa | 0 mm | - | 742 W/m² | - |
| 1778090340 | 23.89° C | 23% | 1018.5 hPa | 0 mm | - | 736 W/m² | - |
| 1778087916 | 24.44° C | 24% | 1018.7 hPa | 0 mm | - | 668 W/m² | - |
| 1778087613 | 24.44° C | 24% | 1018.3 hPa | 0 mm | - | 656 W/m² | - |
| 1778087311 | 23.89° C | 25% | 1018.3 hPa | 0 mm | - | 644 W/m² | - |
| 1778086398 | 23.89° C | 26% | 1018.3 hPa | 0 mm | - | 602 W/m² | - |
| 1778086094 | 23.33° C | 26% | 1018.5 hPa | 0 mm | - | 439 W/m² | - |
* Rain latest hour (hover to see other rain measurements)
** Current wind speed in m/s (hover to see current wind gust speed)